Showing default

GGSE 2, 1244

Orbit data source: Space-Track

GGSE 2, 1244 is an American payload satellite in LEO that was launched on Tue, 09 Mar 1965 UTC via a THOR SLV-2 AGENA D launch vehicle from the Air Force Western Test Range (AFWTR). Payload-class satellites include a variety of spacecraft equipped with specific instruments for various scientific and technological missions. These include communications satellites like Starlink; space stations such as the ISS; scientific satellites like the Hubble; Earth observation satellites from companies like Planet Labs, Umbra, and HawkEye 360; GPS; miniature CubeSats for education and research; and military/defense satellites.

Loading next visibility...
Identifier
1244, 1965-016B
Orbit
LEO
Country
Flag of USUS
Related business
Manufacturer
NRL
Mission
Spacecraft
Bus & Motor
NRL 24", Unknown motor
Mass
55 kg wet, 55 kg dry
Launch date (UTC)
1965-03-09 (61 years ago)
Launch vehicle
THOR SLV-2 AGENA D
Launch site
Air Force Western Test Range (AFWTR)
Object type
Payload
Rocket body
Debris
Shape & HBR
Unknown
Radar Cross Section
Medium (>0.1 m² and <1 m²)

Expand to show TLE details & history
Last TLE update: 7 hours ago

TLE from 7 hours ago
0 GGSE 2
1  1244U 65016B   25343.42264832  .00000123  00000-0  12756-3 0  9997
2  1244  70.0788 230.5512 0022151 331.1884  28.7997 13.96120555 91571
Epoch: 2025-12-09T10:08Z
TLE epoch observation values (Epoch: 2025-12-09T10:08:36.814Z)
Latitude
-0.00007°
Longitude
-0.00977°
Altitude
895.442 km
Speed
7.412 km/s
True Right ascension
15h 22m 12s
True Declination
0° 00' 00"
Sunlit
Object was in daylight at epoch
Visualization orbit readout
Latitude
Unknown
Longitude
Unknown
Altitude
Unknown
Speed
Unknown
Apparent Right ascension
Unknown
Apparent Declination
Unknown
Sunlit
N/A
Visualization observer readout
Local Sidereal Time
14:56:55
Azimuth
Unknown
Elevation
Unknown
Doppler factor
Unknown
Orbital elements
Apogee altitude
921.429 km
Perigee altitude
889.162 km
Semi-major axis
7,283.432 km
Eccentricity
0.00222
Inclination
70.0788°
RAAN
230.5512°
Arg. of periapsis
331.1884°
True anomaly
28.92228°
Mean anomaly
28.7997°
Eccentric anomaly
28.86096°
Mean motion
3.49172 °/min
Orbital period
103.1 mins
BSTAR
0.00012756
Loading maneuver chart data...
Computing Atmospheric mass density...
Loading historical data...
Loading historical data...
Loading historical data...
Loading historical data...
Loading historical data...
Loading historical data...
Loading historical data...

Documentation

Showing up to 5 results
|